TimeEDT,TemperatureF,Dew PointF,Humidity,Sea Level PressureIn,VisibilityMPH,Wind Direction,Wind SpeedMPH,Gust SpeedMPH,PrecipitationIn,Events,Conditions,WindDirDegrees,DateUTC
12:15 AM,58.3,49.5,72,29.90,10.0,South,5.8,-,N/A,,Overcast,180,2012-10-02 04:15:00
12:35 AM,58.3,49.6,73,29.91,10.0,Calm,Calm,-,N/A,,Overcast,0,2012-10-02 04:35:00
12:55 AM,57.6,50.0,76,29.91,10.0,WSW,4.6,-,N/A,,Overcast,240,2012-10-02 04:55:00
1:15 AM,56.5,49.5,77,29.91,10.0,SW,4.6,-,N/A,,Overcast,230,2012-10-02 05:15:00
1:35 AM,56.3,49.5,78,29.93,10.0,Calm,Calm,-,N/A,,Overcast,0,2012-10-02 05:35:00
1:55 AM,55.8,49.1,78,29.92,10.0,SSE,3.5,-,N/A,,Overcast,150,2012-10-02 05:55:00
2:15 AM,55.4,49.3,80,29.91,10.0,SSW,3.5,-,N/A,,Scattered Clouds,210,2012-10-02 06:15:00
2:35 AM,56.3,49.3,77,29.91,10.0,South,3.5,-,N/A,,Clear,170,2012-10-02 06:35:00
2:55 AM,54.9,48.4,79,29.92,10.0,South,3.5,-,N/A,,Clear,190,2012-10-02 06:55:00
3:15 AM,53.4,47.1,79,29.92,10.0,South,3.5,-,N/A,,Clear,170,2012-10-02 07:15:00
3:35 AM,52.9,47.1,81,29.92,10.0,SSW,3.5,-,N/A,,Clear,210,2012-10-02 07:35:00
3:55 AM,52.5,47.5,83,29.93,10.0,South,4.6,-,N/A,,Clear,180,2012-10-02 07:55:00
4:15 AM,54.5,48.6,80,29.94,10.0,SSW,5.8,-,N/A,,Clear,210,2012-10-02 08:15:00
4:35 AM,54.9,49.3,81,29.93,10.0,South,4.6,-,N/A,,Clear,190,2012-10-02 08:35:00
4:55 AM,55.2,48.7,79,29.94,10.0,Calm,Calm,-,N/A,,Clear,0,2012-10-02 08:55:00
5:15 AM,54.5,48.7,81,29.94,10.0,Calm,Calm,-,N/A,,Clear,0,2012-10-02 09:15:00
5:35 AM,53.4,47.7,81,29.95,10.0,Calm,Calm,-,N/A,,Clear,0,2012-10-02 09:35:00
5:55 AM,53.2,48.0,82,29.95,10.0,South,4.6,-,N/A,,Clear,190,2012-10-02 09:55:00
6:15 AM,54.5,49.1,82,29.96,10.0,SSW,4.6,-,N/A,,Clear,210,2012-10-02 10:15:00
6:35 AM,53.6,48.2,82,29.97,10.0,South,5.8,-,N/A,,Clear,190,2012-10-02 10:35:00
6:55 AM,53.2,47.8,82,29.98,10.0,South,3.5,-,N/A,,Clear,180,2012-10-02 10:55:00
7:15 AM,51.1,45.9,82,29.97,1.5,Calm,Calm,-,N/A,,Haze,0,2012-10-02 11:15:00
7:55 AM,54.9,48.7,80,30.00,10.0,SSW,4.6,-,N/A,,Clear,200,2012-10-02 11:55:00
8:15 AM,56.7,50.0,78,30.01,10.0,SE,5.8,-,N/A,,Clear,140,2012-10-02 12:15:00
8:35 AM,57.9,50.2,75,30.01,10.0,Calm,Calm,-,N/A,,Clear,0,2012-10-02 12:35:00
9:15 AM,59.7,51.4,74,30.01,10.0,Calm,Calm,-,N/A,,Clear,0,2012-10-02 13:15:00
9:35 AM,62.1,51.3,68,30.01,10.0,South,6.9,-,N/A,,Clear,170,2012-10-02 13:35:00
9:55 AM,63.5,51.8,66,30.01,10.0,SSW,5.8,-,N/A,,Clear,210,2012-10-02 13:55:00
10:15 AM,65.1,51.3,61,30.01,10.0,SSW,6.9,-,N/A,,Clear,210,2012-10-02 14:15:00
10:35 AM,65.3,50.9,60,30.02,10.0,SSW,3.5,-,N/A,,Clear,200,2012-10-02 14:35:00
10:55 AM,65.5,50.7,59,30.00,10.0,Calm,Calm,-,N/A,,Scattered Clouds,0,2012-10-02 14:55:00
11:15 AM,66.9,51.3,57,30.01,10.0,SSW,6.9,-,N/A,,Overcast,200,2012-10-02 15:15:00
11:35 AM,66.2,51.1,58,30.01,10.0,SSW,3.5,-,N/A,,Scattered Clouds,200,2012-10-02 15:35:00
11:55 AM,66.7,51.1,57,30.01,10.0,SSW,4.6,-,N/A,,Mostly Cloudy,200,2012-10-02 15:55:00
12:15 PM,67.1,50.5,55,30.01,10.0,South,5.8,-,N/A,,Overcast,190,2012-10-02 16:15:00
12:35 PM,66.9,50.2,55,30.00,10.0,SSE,5.8,-,N/A,,Overcast,160,2012-10-02 16:35:00
12:55 PM,66.0,49.5,55,30.00,10.0,South,4.6,-,N/A,,Overcast,170,2012-10-02 16:55:00
1:15 PM,66.9,50.7,56,29.99,10.0,SSW,4.6,-,N/A,,Overcast,200,2012-10-02 17:15:00
1:35 PM,66.6,50.9,57,30.00,10.0,SSW,3.5,-,N/A,,Overcast,210,2012-10-02 17:35:00
1:55 PM,67.6,51.3,56,29.99,10.0,SW,4.6,-,N/A,,Overcast,220,2012-10-02 17:55:00
2:15 PM,67.5,51.8,57,29.99,10.0,WSW,5.8,-,N/A,,Overcast,240,2012-10-02 18:15:00
2:35 PM,66.6,51.1,57,29.99,10.0,SSW,4.6,-,N/A,,Overcast,200,2012-10-02 18:35:00
2:55 PM,65.7,51.4,60,30.00,10.0,SSW,6.9,-,N/A,,Overcast,210,2012-10-02 18:55:00
3:15 PM,64.9,50.7,60,30.00,10.0,SSW,6.9,-,N/A,,Overcast,210,2012-10-02 19:15:00
3:35 PM,64.6,52.0,64,30.00,10.0,SSW,5.8,-,N/A,,Overcast,200,2012-10-02 19:35:00
3:55 PM,64.9,52.9,65,30.00,10.0,Calm,Calm,-,N/A,,Overcast,0,2012-10-02 19:55:00
4:15 PM,64.9,54.3,68,30.00,10.0,Calm,Calm,-,N/A,,Overcast,0,2012-10-02 20:15:00
4:35 PM,64.8,54.1,68,30.00,10.0,Calm,Calm,-,N/A,,Overcast,0,2012-10-02 20:35:00
4:55 PM,64.8,54.3,69,30.00,10.0,Calm,Calm,-,N/A,Rain,Light Rain,0,2012-10-02 20:55:00
5:15 PM,64.0,53.8,69,30.01,10.0,Calm,Calm,-,N/A,,Overcast,0,2012-10-02 21:15:00
5:35 PM,63.9,53.2,68,30.01,10.0,South,3.5,-,N/A,,Overcast,180,2012-10-02 21:35:00
5:55 PM,61.7,53.8,75,30.02,4.0,SW,4.6,-,N/A,,Heavy Drizzle,220,2012-10-02 21:55:00
6:15 PM,60.8,54.5,80,30.02,10.0,SW,3.5,-,N/A,,Light Drizzle,220,2012-10-02 22:15:00
6:35 PM,60.8,53.4,77,30.02,10.0,Calm,Calm,-,N/A,,Overcast,0,2012-10-02 22:35:00
6:55 PM,60.8,52.5,74,30.02,10.0,South,3.5,-,N/A,,Overcast,170,2012-10-02 22:55:00
7:15 PM,60.4,53.4,78,30.04,10.0,Calm,Calm,-,N/A,,Overcast,0,2012-10-02 23:15:00
7:35 PM,60.1,53.6,79,30.05,10.0,Calm,Calm,-,N/A,,Overcast,0,2012-10-02 23:35:00
7:55 PM,59.9,54.0,81,30.04,10.0,Calm,Calm,-,N/A,,Overcast,0,2012-10-02 23:55:00
8:15 PM,59.9,54.0,81,30.05,10.0,Calm,Calm,-,N/A,,Overcast,0,2012-10-03 00:15:00
8:35 PM,59.5,53.8,81,30.05,10.0,Calm,Calm,-,N/A,,Overcast,0,2012-10-03 00:35:00
8:55 PM,59.2,53.6,82,30.05,10.0,Calm,Calm,-,N/A,,Overcast,0,2012-10-03 00:55:00
9:15 PM,59.2,53.8,82,30.05,10.0,Calm,Calm,-,N/A,,Overcast,0,2012-10-03 01:15:00
9:35 PM,59.4,54.0,82,30.06,10.0,SSW,3.5,-,N/A,,Overcast,210,2012-10-03 01:35:00
10:15 PM,59.4,53.8,82,30.07,10.0,Calm,Calm,-,N/A,,Overcast,0,2012-10-03 02:15:00
10:35 PM,59.2,53.4,81,30.07,10.0,Calm,Calm,-,N/A,,Overcast,0,2012-10-03 02:35:00
10:55 PM,59.0,53.1,81,30.07,10.0,Calm,Calm,-,N/A,,Overcast,0,2012-10-03 02:55:00
11:15 PM,58.1,52.5,82,30.06,10.0,South,3.5,-,N/A,,Mostly Cloudy,180,2012-10-03 03:15:00
11:35 PM,57.4,52.0,82,30.06,10.0,Calm,Calm,-,N/A,,Scattered Clouds,0,2012-10-03 03:35:00
11:55 PM,57.2,52.0,83,30.06,10.0,SSW,3.5,-,N/A,,Clear,210,2012-10-03 03:55:00